Back to catalog

DELTA 1 DEB

AliveSSO
NORAD 13569·DEBRIS·🇺🇸 United States

Launched Mar 5, 1978 from Vandenberg Space Force Base

Loading…

Next Passes (next 24 hours)

TLE

FreshSource: Space-Track

Epoch: Sep 13, 2026, 20:21 UTC

1 13569U 78026FG  26256.84825692  .00001493  00000-0  66968-3 0  9997
2 13569  99.0797   4.1051 0094285 323.0543 163.4010 14.21757123295820

Track DELTA 1 DEB in real time with AllMySat

Download on the App Store